EDT,Max TemperatureF,Mean TemperatureF,Min TemperatureF,Max Dew PointF,MeanDew PointF,Min DewpointF,Max Humidity, Mean Humidity, Min Humidity, Max Sea Level PressureIn, Mean Sea Level PressureIn, Min Sea Level PressureIn, Max VisibilityMiles, Mean VisibilityMiles, Min VisibilityMiles, Max Wind SpeedMPH, Mean Wind SpeedMPH, Max Gust SpeedMPH,PrecipitationIn, CloudCover, Events, WindDirDegrees
2011-10-1,74,67,59,66,63,57,100,87,73,29.75,29.64,29.58,10,8,2,15,5,17,0.28,7,Rain,346
2011-10-2,70,62,53,61,58,50,100,83,65,29.92,29.83,29.76,10,8,2,13,5,16,0.02,6,Rain,27
2011-10-3,67,60,52,55,51,42,100,72,44,30.08,30.02,29.93,10,7,0,13,4,18,0.46,6,Fog-Rain,198
2011-10-4,67,61,54,55,53,50,100,80,60,30.02,29.94,29.88,10,9,2,17,8,22,0.14,7,Rain,321
2011-10-5,68,57,45,52,43,30,89,62,34,30.25,30.02,29.90,10,10,10,23,11,33,0.00,3,Rain,326
2011-10-6,64,53,42,38,30,25,70,47,23,30.36,30.28,30.23,10,10,10,20,9,28,0.00,2,,310
2011-10-7,62,51,40,42,35,28,80,56,32,30.48,30.43,30.37,10,10,10,12,4,15,0.00,3,,327
2011-10-8,80,65,49,56,48,41,77,58,39,30.45,30.40,30.35,10,10,10,10,5,14,0.00,0,,261
2011-10-9,86,71,55,56,52,49,80,55,29,30.35,30.30,30.23,10,10,10,13,6,17,0.00,0,,288
2011-10-10,84,69,54,60,55,51,86,63,39,30.23,30.16,30.10,10,10,10,14,6,18,0.00,1,Fog,312
2011-10-11,71,63,54,56,48,43,83,61,39,30.25,30.21,30.16,10,10,10,12,6,15,0.00,7,,40
2011-10-12,61,57,53,56,51,48,93,79,64,30.23,30.15,30.04,10,9,2,15,9,18,0.10,8,Rain,46
2011-10-13,64,60,57,63,60,57,100,94,87,30.02,29.84,29.77,10,3,1,13,9,,0.54,8,Rain,19
2011-10-14,71,65,59,69,63,57,100,95,90,29.78,29.56,29.37,10,4,0,17,9,25,0.74,7,Fog-Rain-Thunderstorm,126
2011-10-15,66,59,52,55,44,34,87,62,37,29.72,29.61,29.44,10,10,10,26,14,39,T,3,Rain,229
2011-10-16,65,59,52,51,39,34,67,53,39,29.84,29.77,29.69,10,10,10,23,12,35,T,3,,233
2011-10-17,65,59,52,56,44,32,84,57,30,29.77,29.70,29.62,10,10,10,22,10,35,0.01,4,Rain,236
2011-10-18,70,58,45,46,40,36,82,55,28,29.95,29.86,29.76,10,10,10,13,4,17,0.00,5,,223
2011-10-19,61,56,51,59,55,46,100,89,77,29.95,29.77,29.57,10,4,2,24,11,30,1.57,8,Rain,27
2011-10-20,70,62,53,64,54,42,100,76,52,29.70,29.55,29.49,10,5,0,32,13,43,0.54,6,Rain,348
2011-10-21,63,55,47,43,41,38,80,62,43,29.99,29.85,29.73,10,10,10,17,8,23,0.00,2,,233
2011-10-22,62,53,44,43,40,39,83,65,46,30.09,30.02,29.98,10,10,10,13,6,17,0.00,4,,282
2011-10-23,57,48,39,41,37,35,92,68,43,30.17,30.12,30.09,10,10,8,7,4,9,0.00,3,,288
2011-10-24,61,49,37,47,42,35,92,74,55,30.17,30.08,29.95,10,9,6,15,5,18,T,6,Fog,192
2011-10-25,59,52,44,49,39,32,93,65,37,30.01,29.94,29.90,10,10,7,23,10,32,0.02,2,,286
2011-10-26,53,48,43,43,39,34,80,70,59,30.03,29.88,29.78,10,10,10,9,5,10,T,7,Rain,24
2011-10-27,49,42,35,45,41,33,93,87,80,29.88,29.72,29.64,10,5,2,22,11,30,0.90,8,Rain-Snow,15
2011-10-28,48,41,34,33,27,21,89,62,34,30.27,30.12,29.91,10,10,10,20,7,25,T,3,,335
2011-10-29,44,39,33,37,32,26,92,74,55,30.27,29.99,29.69,10,5,1,26,14,38,1.03,8,Rain-Snow,20
2011-10-30,47,40,32,32,29,25,89,69,49,30.31,29.94,29.68,10,7,1,29,12,44,0.12,4,Snow,315
2011-10-31,52,40,27,35,30,25,92,65,38,30.42,30.39,30.33,10,10,9,12,3,14,0.00,5,,197